When you browse on this site, cookies collect data to enhance your experience and personalize the content and advertising you see.
Visit our Privacy Policy to learn more. By continuing to use the site, you agree to this use of cookies and data.
  • In Hungary
  • List of Countries
  • For 7 days
  • Water Temperature
  • Satellite Maps
  • Weather Map
  • News
  • Weather Widgets
  • user-avatar
    Login

    Hourly Weather Katerini

    Today, 20 January, Sunday

    Time Temperature Precipitation Wind Pressure Humidity
    00:00 +9°C° 0.4 mm 1 mps 759 mmHg 89%
    01:00 +9°C° 0.4 mm 1 mps 759 mmHg 90%
    02:00 +9°C° 0 mm 1 mps 759 mmHg 92%
    03:00 +9°C° 0.4 mm 1 mps 759 mmHg 92%
    04:00 +9°C° 0.4 mm 1 mps 759 mmHg 92%
    05:00 +9°C° 0.4 mm 1 mps 758 mmHg 92%
    06:00 +9°C° 0 mm 1 mps 758 mmHg 92%
    07:00 +9°C° 0 mm 1 mps 758 mmHg 92%
    08:00 +8°C° 0 mm 1 mps 758 mmHg 91%
    09:00 +9°C° 0 mm 1 mps 758 mmHg 88%
    10:00 +10°C° 0 mm 1 mps 758 mmHg 85%
    11:00 +11°C° 0 mm 1 mps 758 mmHg 81%
    12:00 +12°C° 0 mm 1 mps 757 mmHg 79%
    13:00 +12°C° 0 mm 1 mps 757 mmHg 78%
    14:00 +13°C° 0 mm 1 mps 757 mmHg 76%
    15:00 +12°C° 0 mm 1 mps 757 mmHg 78%
    16:00 +12°C° 0 mm 1 mps 757 mmHg 80%
    17:00 +11°C° 0 mm 1 mps 757 mmHg 83%
    18:00 +11°C° 0 mm 1 mps 757 mmHg 84%
    19:00 +10°C° 0 mm 1 mps 757 mmHg 85%
    20:00 +9°C° 0 mm 1 mps 757 mmHg 86%
    21:00 +9°C° 0 mm 1 mps 757 mmHg 86%
    22:00 +9°C° 0 mm 1 mps 758 mmHg 86%
    23:00 +8°C° 0 mm 2 mps 758 mmHg 86%

    Tomorrow, 21 January, Monday

    Time Temperature Precipitation Wind Pressure Humidity
    00:00 +7°C° 0 mm 2 mps 758 mmHg 85%
    01:00 +7°C° 0 mm 2 mps 758 mmHg 84%
    02:00 +7°C° 0 mm 2 mps 758 mmHg 84%
    03:00 +7°C° 0 mm 2 mps 758 mmHg 83%
    04:00 +7°C° 0 mm 2 mps 758 mmHg 83%
    05:00 +6°C° 0 mm 2 mps 758 mmHg 82%
    06:00 +6°C° 0 mm 2 mps 758 mmHg 82%
    07:00 +6°C° 0 mm 2 mps 758 mmHg 82%
    08:00 +6°C° 0 mm 2 mps 759 mmHg 82%
    09:00 +8°C° 0 mm 1 mps 759 mmHg 79%
    10:00 +10°C° 0 mm 1 mps 759 mmHg 75%
    11:00 +11°C° 0 mm 1 mps 759 mmHg 72%
    12:00 +12°C° 0 mm 1 mps 759 mmHg 70%
    13:00 +12°C° 0 mm 1 mps 759 mmHg 69%
    14:00 +13°C° 0 mm 1 mps 758 mmHg 68%
    15:00 +12°C° 0 mm 1 mps 759 mmHg 71%
    16:00 +11°C° 0 mm 1 mps 759 mmHg 73%
    17:00 +11°C° 0 mm 1 mps 759 mmHg 76%
    18:00 +10°C° 0 mm 1 mps 759 mmHg 78%
    19:00 +8°C° 0 mm 0 mps 759 mmHg 80%
    20:00 +8°C° 0 mm 0 mps 760 mmHg 81%
    21:00 +7°C° 0 mm 0 mps 760 mmHg 82%
    22:00 +7°C° 0 mm 0 mps 760 mmHg 83%
    23:00 +7°C° 0 mm 0 mps 760 mmHg 83%

    Day after tomorrow, 22 January, Tuesday

    Time Temperature Precipitation Wind Pressure Humidity
    00:00 +8°C° 0 mm 1 mps 760 mmHg 84%
    01:00 +8°C° 0 mm 1 mps 760 mmHg 84%
    02:00 +8°C° 0 mm 1 mps 760 mmHg 85%
    03:00 +8°C° 0 mm 1 mps 760 mmHg 86%
    04:00 +8°C° 0 mm 1 mps 759 mmHg 86%
    05:00 +8°C° 0 mm 1 mps 759 mmHg 87%
    06:00 +8°C° 0.1 mm 1 mps 759 mmHg 87%
    07:00 +8°C° 0.1 mm 1 mps 759 mmHg 87%
    08:00 +8°C° 0.1 mm 1 mps 759 mmHg 87%
    09:00 +8°C° 0.2 mm 1 mps 758 mmHg 87%
    10:00 +9°C° 0.2 mm 1 mps 758 mmHg 87%
    11:00 +9°C° 0.2 mm 1 mps 758 mmHg 86%
    12:00 +10°C° 0.4 mm 1 mps 757 mmHg 87%
    13:00 +10°C° 0.4 mm 1 mps 757 mmHg 87%
    14:00 +9°C° 0.4 mm 2 mps 756 mmHg 88%
    15:00 +9°C° 0.4 mm 2 mps 755 mmHg 89%
    16:00 +9°C° 0.4 mm 2 mps 755 mmHg 89%
    17:00 +9°C° 0.4 mm 2 mps 754 mmHg 90%
    18:00 +9°C° 1.4 mm 3 mps 754 mmHg 91%
    19:00 +9°C° 1.4 mm 3 mps 754 mmHg 91%
    20:00 +9°C° 1.4 mm 3 mps 754 mmHg 92%
    21:00 +9°C° 0.7 mm 3 mps 753 mmHg 92%
    22:00 +9°C° 0.7 mm 3 mps 753 mmHg 91%
    23:00 +9°C° 0.7 mm 2 mps 752 mmHg 91%

    23 January, Wednesday

    Time Temperature Precipitation Wind Pressure Humidity
    00:00 +9°C° 0.4 mm 2 mps 752 mmHg 90%
    01:00 +9°C° 0.4 mm 2 mps 751 mmHg 90%
    02:00 +10°C° 0.4 mm 1 mps 750 mmHg 89%
    03:00 +9°C° 0.1 mm 2 mps 750 mmHg 88%
    04:00 +9°C° 0.1 mm 2 mps 749 mmHg 86%
    05:00 +9°C° 0.1 mm 3 mps 749 mmHg 85%
    06:00 +9°C° 0 mm 3 mps 749 mmHg 84%
    07:00 +9°C° 0 mm 3 mps 749 mmHg 82%
    08:00 +7°C° 0 mm 4 mps 749 mmHg 81%
    09:00 +10°C° 0 mm 4 mps 749 mmHg 77%
    10:00 +11°C° 0 mm 3 mps 750 mmHg 72%
    11:00 +13°C° 0 mm 3 mps 750 mmHg 68%
    12:00 +13°C° 0 mm 3 mps 750 mmHg 64%
    13:00 +13°C° 0 mm 4 mps 749 mmHg 61%
    14:00 +14°C° 0 mm 4 mps 749 mmHg 58%
    15:00 +13°C° 0 mm 3 mps 749 mmHg 61%
    16:00 +12°C° 0 mm 3 mps 749 mmHg 65%
    17:00 +12°C° 0 mm 3 mps 749 mmHg 68%
    18:00 +11°C° 0 mm 3 mps 749 mmHg 69%
    19:00 +10°C° 0 mm 2 mps 749 mmHg 69%
    20:00 +9°C° 0 mm 2 mps 750 mmHg 69%
    21:00 +9°C° 0.1 mm 2 mps 750 mmHg 72%
    22:00 +9°C° 0.1 mm 2 mps 749 mmHg 75%
    23:00 +9°C° 0.1 mm 2 mps 749 mmHg 78%

    24 January, Thursday

    Time Temperature Precipitation Wind Pressure Humidity
    00:00 +9°C° 0.4 mm 2 mps 749 mmHg 82%
    01:00 +9°C° 0.4 mm 2 mps 748 mmHg 87%
    02:00 +9°C° 0.4 mm 2 mps 747 mmHg 91%
    03:00 +9°C° 0.3 mm 2 mps 747 mmHg 91%
    04:00 +9°C° 0.3 mm 2 mps 746 mmHg 92%
    05:00 +10°C° 0.3 mm 2 mps 746 mmHg 92%
    06:00 +10°C° 0.4 mm 2 mps 745 mmHg 92%
    07:00 +10°C° 0.4 mm 2 mps 745 mmHg 92%
    08:00 +10°C° 0.4 mm 2 mps 745 mmHg 92%
    09:00 +10°C° 0.9 mm 3 mps 744 mmHg 90%
    10:00 +11°C° 0.9 mm 3 mps 744 mmHg 89%
    11:00 +11°C° 0.9 mm 3 mps 744 mmHg 88%
    12:00 +13°C° 1 mm 2 mps 743 mmHg 86%
    13:00 +13°C° 1 mm 2 mps 742 mmHg 84%
    14:00 +13°C° 1 mm 1 mps 741 mmHg 82%
    15:00 +13°C° 1.6 mm 2 mps 741 mmHg 85%
    16:00 +12°C° 1.6 mm 2 mps 741 mmHg 87%
    17:00 +11°C° 1.6 mm 3 mps 740 mmHg 89%
    18:00 +12°C° 2.9 mm 2 mps 740 mmHg 90%
    19:00 +10°C° 2.9 mm 2 mps 740 mmHg 91%
    20:00 +10°C° 2.9 mm 2 mps 740 mmHg 92%
    21:00 +11°C° 1.2 mm 1 mps 740 mmHg 92%
    22:00 +10°C° 1.2 mm 1 mps 740 mmHg 92%
    23:00 +10°C° 1.2 mm 1 mps 740 mmHg 92%

    25 January, Friday

    Time Temperature Precipitation Wind Pressure Humidity
    00:00 +10°C° 0.5 mm 1 mps 740 mmHg 93%
    01:00 +10°C° 0.5 mm 1 mps 740 mmHg 93%
    02:00 +10°C° 0.5 mm 1 mps 740 mmHg 94%
    03:00 +9°C° 0.8 mm 1 mps 740 mmHg 93%
    04:00 +8°C° 0.8 mm 2 mps 740 mmHg 92%
    05:00 +8°C° 0.8 mm 2 mps 740 mmHg 91%
    06:00 +8°C° 0.3 mm 2 mps 740 mmHg 89%
    07:00 +8°C° 0.3 mm 2 mps 740 mmHg 88%
    08:00 +8°C° 0.3 mm 2 mps 740 mmHg 86%
    09:00 +9°C° 0 mm 2 mps 740 mmHg 83%
    10:00 +10°C° 0 mm 1 mps 740 mmHg 79%
    11:00 +11°C° 0 mm 1 mps 741 mmHg 76%
    12:00 +10°C° 0.1 mm 2 mps 741 mmHg 78%
    13:00 +10°C° 0.1 mm 2 mps 741 mmHg 80%
    14:00 +10°C° 0.1 mm 2 mps 741 mmHg 82%
    15:00 +10°C° 0.1 mm 3 mps 741 mmHg 84%
    16:00 +8°C° 0.1 mm 4 mps 741 mmHg 85%
    17:00 +8°C° 0.1 mm 4 mps 741 mmHg 86%
    18:00 +8°C° 0 mm 4 mps 742 mmHg 86%
    19:00 +7°C° 0 mm 4 mps 742 mmHg 86%
    20:00 +7°C° 0 mm 4 mps 743 mmHg 85%
    21:00 +6°C° 0 mm 4 mps 743 mmHg 84%
    22:00 +6°C° 0 mm 4 mps 743 mmHg 82%
    23:00 +6°C° 0 mm 4 mps 744 mmHg 80%
    Show more